Regional Weather Roundup
Issued by NWS

Home | Current Version | Previous Version | Graphics & Text | Print | Product List | Glossary On
Versions: 1 2 3 4 5 6 7 8 9 10 11 12 13 14 15 16 17 18 19 20 21 22 23 24 25 26 27 28 29 30 31 32 33 34 35 36 37 38 39 40 41 42 43 44 45 46 47 48 49 50
000
ASUS44 KMEG 220910
RWRTN
TENNESSEE HOURLY STATE WEATHER ROUNDUP
NATIONAL WEATHER SERVICE MEMPHIS TN
400 AM CDT FRI AUG 22 2014

TNZ002-004-019-021-049-052-054-088>092-221000-
WEST TENNESSEE

CITY           SKY/WX    TMP DP  RH WIND       PRES   REMARKS
MEMPHIS INTL   CLEAR     78  73  84 S9        30.05S
NWS MEMPHIS      N/A     78 N/A N/A MISG        N/A
JACKSON        PTCLDY    74  72  93 SW7       30.04S
DYERSBURG      CLEAR     75  64  69 CALM      30.03S
UNION CITY     CLEAR     73  72  94 S3        30.00F
PARIS          CLEAR     72  70  94 CALM      30.03F
HUNTINGDON     PTCLDY    72  71  96 CALM      30.04S
LEXINGTON      CLEAR     73  72  94 CALM      30.04S
SAVANNAH       CLEAR     73  73 100 CALM      30.07S
$$

TNZ008-025-027-028-033-062-065-066-221000-
NORTH MIDDLE TENNESSEE

CITY           SKY/WX    TMP DP  RH WIND       PRES   REMARKS
NASHVILLE      PTCLDY    75  72  90 CALM      30.04F
DICKSON        PTCLDY    75  72  88 SW6       30.05F
PORTLAND       PTCLDY    77  72  83 SW5       30.04F
CLARKSVILLE    CLEAR     76  72  87 CALM      30.03S
LEBANON        PTCLDY    72  70  93 CALM      30.04F
SMYRNA         PTCLDY    73  72  97 CALM      30.05F
MURFREESBORO   PTCLDY    75  71  87 CALM      30.04F
COOKEVILLE       N/A     70  70 100 CALM      30.08S VSB 1
LIVINGSTON     MOCLDY    72  70  93 SW6       30.08F
GALLATIN       PTCLDY    73  73 100 CALM      30.05F
CROSSVILLE     MOCLDY    71  67  87 CALM      30.13F
$$

TNZ061-075-076-078-094-096-097-221000-
SOUTH MIDDLE TENNESSEE

CITY           SKY/WX    TMP DP  RH WIND       PRES   REMARKS
LEWISBURG      PTCLDY    71  69  93 CALM      30.05F
FAYETTEVILLE   CLEAR     72  70  94 CALM      30.08F
TULLAHOMA      CLEAR     70  66  88 CALM      30.09F
WINCHESTER     CLEAR     72  70  94 CALM      30.08F
MCMINNVILLE    PTCLDY    70  70 100 CALM      30.08F
COLUMBIA       CLEAR     73  73 100 SW3       30.04F
SHELBYVILLE    CLEAR     72  72 100 E5        30.07F
$$

TNZ017-018-042-046-047-221000-
NORTHEAST TENNESSEE

CITY           SKY/WX    TMP DP  RH WIND       PRES   REMARKS
TRI CITIES     FOG       71  69  93 E3        30.11S VSB 3/4
ELIZABETHTON   PTSUNNY   66  66 100 CALM      30.12S FOG
$$

TNZ012-013-036-069-073-074-221000-
CENTRAL EAST TENNESSEE

CITY           SKY/WX    TMP DP  RH WIND       PRES   REMARKS
KNOXVILLE      PTCLDY    73  69  87 CALM      30.07S
OAK RIDGE      PTCLDY    74  71  91 CALM      30.09S
GATLINBURG     SUNNY     68  66  94 CALM      30.08F
MORRISTOWN     SUNNY     72  72 100 CALM      30.11R
$$

TNZ083-085-099-221000-
SOUTHEAST TENNESSEE

CITY           SKY/WX    TMP DP  RH WIND       PRES   REMARKS
CHATTANOOGA    CLEAR     75  71  87 CALM      30.07F
$$

SKY/WX REPORTED AS FAIR MEANS FEW OR NO CLOUDS BELOW
12 THOUSAND FEET.




USA.gov is the U.S. government's official web portal to all federal, state and local government web resources and services.